KLM32E EHAM-EIDW

Flight info

Callsign KLM32E
Flight time 1h 18m
Altitude 36000
Route BERGI L60 PENIL UL28 LELDO M145 BAGSO BAGSO4L
Aircraft B738/M-SDE2E3FGHIRWXY/LB1

Departure

Time 2026-05-05 17:57
Airport Amsterdam Airport Schiphol (EHAM)

Arrival

Time 2026-05-05 19:15
Airport Dublin Airport (EIDW)
Time Latitude Longitude Altitude Speed Heading
2026-05-05 17:33 52.30785 4.77356 -2 ft 0 kts 183°
2026-05-05 17:46 52.30804 4.77363 -2 ft 4 kts 213°
2026-05-05 17:46 52.30818 4.77379 -2 ft 4 kts 179°
2026-05-05 17:46 52.30831 4.77363 -2 ft 4 kts 117°
2026-05-05 17:46 52.30837 4.77337 -2 ft 0 kts 109°
2026-05-05 17:49 52.30836 4.77373 -2 ft 8 kts 90°
2026-05-05 17:49 52.30808 4.77461 -2 ft 10 kts 168°
2026-05-05 17:50 52.30735 4.77462 -2 ft 12 kts 182°
2026-05-05 17:50 52.30647 4.77424 -2 ft 14 kts 222°
2026-05-05 17:50 52.30591 4.77295 -2 ft 14 kts 237°
2026-05-05 17:50 52.30540 4.77161 -2 ft 15 kts 238°
2026-05-05 17:51 52.30470 4.76978 -2 ft 22 kts 238°
2026-05-05 17:51 52.30376 4.76736 -2 ft 29 kts 237°
2026-05-05 17:51 52.30276 4.76472 -2 ft 27 kts 238°
2026-05-05 17:51 52.30180 4.76225 -2 ft 25 kts 237°
2026-05-05 17:52 52.30092 4.75994 -2 ft 23 kts 238°
2026-05-05 17:52 52.30008 4.75774 -2 ft 22 kts 238°
2026-05-05 17:52 52.29923 4.75554 -2 ft 23 kts 237°
2026-05-05 17:52 52.29840 4.75335 -2 ft 22 kts 245°
2026-05-05 17:53 52.29886 4.75114 -2 ft 22 kts 312°
2026-05-05 17:53 52.29985 4.74930 -2 ft 22 kts 311°
2026-05-05 17:53 52.30086 4.74744 1 ft 22 kts 312°
2026-05-05 17:53 52.30185 4.74565 9 ft 21 kts 313°
2026-05-05 17:54 52.30265 4.74417 9 ft 14 kts 311°
2026-05-05 17:54 52.30334 4.74278 -2 ft 20 kts 308°
2026-05-05 17:54 52.30359 4.74109 -2 ft 15 kts 241°
2026-05-05 17:54 52.30282 4.73997 -2 ft 15 kts 219°
2026-05-05 17:55 52.30205 4.73893 -2 ft 14 kts 220°
2026-05-05 17:55 52.30198 4.73752 -3 ft 13 kts 311°
2026-05-05 17:55 52.30261 4.73740 -5 ft 0 kts
2026-05-05 17:56 52.30276 4.73741 -5 ft 15 kts
2026-05-05 17:56 52.30628 4.73774 -4 ft 85 kts
2026-05-05 17:56 52.31430 4.73849 -1 ft 143 kts
2026-05-05 17:56 52.32486 4.73978 471 ft 157 kts
2026-05-05 17:57 52.33556 4.73915 1378 ft 153 kts 348°
2026-05-05 17:57 52.34623 4.73270 1882 ft 177 kts 343°
2026-05-05 17:57 52.35864 4.72502 2124 ft 203 kts 344°
2026-05-05 17:57 52.37246 4.71644 2484 ft 219 kts 343°
2026-05-05 17:58 52.38748 4.70717 2763 ft 241 kts 343°
2026-05-05 17:58 52.40341 4.69750 3483 ft 245 kts 343°
2026-05-05 17:58 52.41948 4.68701 4211 ft 254 kts 333°
2026-05-05 17:58 52.43173 4.66601 5099 ft 260 kts 306°
2026-05-05 17:59 52.44086 4.64012 5929 ft 263 kts 303°
2026-05-05 17:59 52.44993 4.61395 6718 ft 266 kts 302°
2026-05-05 17:59 52.45926 4.58750 7425 ft 270 kts 302°
2026-05-05 17:59 52.46872 4.56124 8163 ft 273 kts 302°
2026-05-05 18:00 52.47871 4.53401 8909 ft 276 kts 302°
2026-05-05 18:00 52.48864 4.50726 9633 ft 280 kts 302°
2026-05-05 18:00 52.49891 4.47989 10261 ft 287 kts 302°
2026-05-05 18:00 52.50984 4.45093 10434 ft 310 kts 302°
2026-05-05 18:01 52.52160 4.41988 10652 ft 329 kts 302°
2026-05-05 18:01 52.53392 4.38748 11168 ft 337 kts 302°
2026-05-05 18:01 52.54640 4.35469 11863 ft 340 kts 302°
2026-05-05 18:01 52.55900 4.32159 12603 ft 342 kts 301°
2026-05-05 18:02 52.57163 4.28844 13333 ft 345 kts 301°
2026-05-05 18:02 52.58445 4.25474 14024 ft 349 kts 301°
2026-05-05 18:02 52.59741 4.22065 14656 ft 354 kts 301°
2026-05-05 18:02 52.61053 4.18609 15302 ft 358 kts 301°
2026-05-05 18:03 52.62385 4.15098 15941 ft 363 kts 301°
2026-05-05 18:03 52.63728 4.11552 16579 ft 367 kts 300°
2026-05-05 18:03 52.65086 4.07962 17210 ft 372 kts 300°
2026-05-05 18:03 52.66460 4.04324 17839 ft 376 kts 300°
2026-05-05 18:04 52.67851 4.00634 18437 ft 381 kts 300°
2026-05-05 18:04 52.69229 3.96977 19120 ft 380 kts 300°
2026-05-05 18:04 52.70638 3.93231 19696 ft 383 kts 299°
2026-05-05 18:04 52.72044 3.89487 20288 ft 386 kts 299°
2026-05-05 18:05 52.73457 3.85718 20788 ft 391 kts 299°
2026-05-05 18:05 52.74890 3.81888 21286 ft 395 kts 299°
2026-05-05 18:05 52.76341 3.78006 21796 ft 399 kts 299°
2026-05-05 18:05 52.77807 3.74080 22305 ft 403 kts 299°
2026-05-05 18:06 52.79280 3.70128 22790 ft 407 kts 300°
2026-05-05 18:06 52.80266 3.67479 23129 ft 409 kts 300°
2026-05-05 18:06 52.82269 3.62080 23745 ft 413 kts 299°
2026-05-05 18:06 52.83778 3.58013 24191 ft 416 kts 300°
2026-05-05 18:07 52.85300 3.53919 24625 ft 418 kts 299°
2026-05-05 18:07 52.86800 3.49863 25053 ft 419 kts 299°
2026-05-05 18:07 52.88326 3.45726 25478 ft 422 kts 299°
2026-05-05 18:07 52.89857 3.41570 25873 ft 424 kts 299°
2026-05-05 18:08 52.91398 3.37378 26272 ft 427 kts 299°
2026-05-05 18:08 52.92945 3.33165 26658 ft 429 kts 298°
2026-05-05 18:08 52.94501 3.28925 27048 ft 431 kts 298°
2026-05-05 18:08 52.96062 3.24661 27416 ft 434 kts 298°
2026-05-05 18:09 52.97584 3.20335 27842 ft 433 kts 294°
2026-05-05 18:09 52.98726 3.15723 28243 ft 430 kts 284°
2026-05-05 18:09 52.99613 3.11002 28593 ft 432 kts 283°
2026-05-05 18:09 53.00482 3.06200 28898 ft 435 kts 283°
2026-05-05 18:10 53.01355 3.01386 29262 ft 436 kts 283°
2026-05-05 18:10 53.02241 2.96557 29658 ft 437 kts 284°
2026-05-05 18:10 53.03125 2.91795 29996 ft 438 kts 284°
2026-05-05 18:10 53.04030 2.86959 30371 ft 437 kts 284°
2026-05-05 18:11 53.04934 2.82140 30792 ft 435 kts 284°
2026-05-05 18:11 53.05831 2.77351 31192 ft 434 kts 284°
2026-05-05 18:11 53.06723 2.72570 31557 ft 433 kts 284°
2026-05-05 18:11 53.07612 2.67793 31905 ft 432 kts 283°
2026-05-05 18:12 53.08498 2.63020 32282 ft 431 kts 283°
2026-05-05 18:12 53.09380 2.58256 32658 ft 430 kts 283°
2026-05-05 18:12 53.10259 2.53495 33010 ft 429 kts 284°
2026-05-05 18:12 53.11063 2.48739 33414 ft 424 kts 278°
2026-05-05 18:13 53.11537 2.43979 33784 ft 421 kts 275°
2026-05-05 18:13 53.11920 2.39158 34083 ft 420 kts 274°
2026-05-05 18:13 53.12281 2.34323 34306 ft 421 kts 274°
2026-05-05 18:13 53.12640 2.29478 34519 ft 422 kts 274°
2026-05-05 18:14 53.13007 2.24638 34755 ft 422 kts 274°
2026-05-05 18:14 53.13383 2.19784 34991 ft 422 kts 275°
2026-05-05 18:14 53.13764 2.14939 35213 ft 423 kts 275°
2026-05-05 18:14 53.14150 2.10064 35427 ft 423 kts 275°
2026-05-05 18:15 53.14535 2.05209 35656 ft 423 kts 275°
2026-05-05 18:15 53.14919 2.00351 35869 ft 424 kts 275°
2026-05-05 18:15 53.15304 1.95462 35956 ft 427 kts 275°
2026-05-05 18:16 53.16074 1.85609 35968 ft 429 kts 275°
2026-05-05 18:16 53.16827 1.75872 35961 ft 423 kts 275°
2026-05-05 18:17 53.17569 1.66160 35976 ft 421 kts 275°
2026-05-05 18:17 53.18300 1.56481 35975 ft 420 kts 275°
2026-05-05 18:18 53.19022 1.46810 35977 ft 420 kts 275°
2026-05-05 18:18 53.19736 1.37134 35981 ft 421 kts 275°
2026-05-05 18:19 53.20444 1.27425 35983 ft 422 kts 274°
2026-05-05 18:19 53.21147 1.17680 35984 ft 424 kts 274°
2026-05-05 18:20 53.21845 1.07899 35984 ft 425 kts 274°
2026-05-05 18:20 53.22535 0.98119 35989 ft 427 kts 275°
2026-05-05 18:21 53.23222 0.88253 35987 ft 428 kts 274°
2026-05-05 18:21 53.23902 0.78360 35989 ft 429 kts 274°
2026-05-05 18:22 53.24572 0.68506 35990 ft 429 kts 274°
2026-05-05 18:22 53.25237 0.58590 36000 ft 429 kts 274°
2026-05-05 18:23 53.25893 0.48689 35995 ft 429 kts 275°
2026-05-05 18:23 53.26541 0.38785 35998 ft 429 kts 274°
2026-05-05 18:24 53.27180 0.28884 35996 ft 428 kts 274°
2026-05-05 18:24 53.27811 0.18993 35996 ft 428 kts 274°
2026-05-05 18:25 53.28434 0.09108 35997 ft 427 kts 274°
2026-05-05 18:25 53.29139 -0.00761 36012 ft 428 kts 277°
2026-05-05 18:26 53.30168 -0.10500 36013 ft 429 kts 278°
2026-05-05 18:26 53.31225 -0.20326 36014 ft 429 kts 278°
2026-05-05 18:27 53.32239 -0.30182 36007 ft 430 kts 278°
2026-05-05 18:27 53.33237 -0.40064 36016 ft 431 kts 278°
2026-05-05 18:28 53.34726 -0.54839 36017 ft 432 kts 278°
2026-05-05 18:28 53.35717 -0.64748 36017 ft 432 kts 278°
2026-05-05 18:29 53.36687 -0.74677 36018 ft 432 kts 278°
2026-05-05 18:29 53.37645 -0.84613 36012 ft 432 kts 277°
2026-05-05 18:30 53.38600 -0.94557 36010 ft 432 kts 278°
2026-05-05 18:30 53.39584 -1.04486 36018 ft 431 kts 278°
2026-05-05 18:31 53.40538 -1.14403 36019 ft 431 kts 278°
2026-05-05 18:31 53.41472 -1.24306 36014 ft 430 kts 278°
2026-05-05 18:32 53.42374 -1.34150 36021 ft 429 kts 278°
2026-05-05 18:32 53.43303 -1.44033 36022 ft 428 kts 277°
2026-05-05 18:33 53.44220 -1.53910 36026 ft 428 kts 278°
2026-05-05 18:33 53.45122 -1.63787 36030 ft 428 kts 278°
2026-05-05 18:34 53.46015 -1.73657 36021 ft 427 kts 277°
2026-05-05 18:34 53.46898 -1.83504 36020 ft 426 kts 277°
2026-05-05 18:35 53.47751 -1.93290 36025 ft 426 kts 277°
2026-05-05 18:35 53.48599 -2.03129 36013 ft 425 kts 277°
2026-05-05 18:36 53.49440 -2.12957 36021 ft 425 kts 277°
2026-05-05 18:36 53.50276 -2.22792 36022 ft 425 kts 277°
2026-05-05 18:37 53.51107 -2.32629 36027 ft 425 kts 277°
2026-05-05 18:37 53.51934 -2.42492 36023 ft 426 kts 277°
2026-05-05 18:38 53.52748 -2.52298 36028 ft 426 kts 277°
2026-05-05 18:38 53.53558 -2.62172 35748 ft 426 kts 277°
2026-05-05 18:39 53.53956 -2.67055 35490 ft 418 kts 277°
2026-05-05 18:39 53.54347 -2.71875 35097 ft 413 kts 277°
2026-05-05 18:39 53.54731 -2.76639 34723 ft 409 kts 277°
2026-05-05 18:39 53.55110 -2.81364 34335 ft 406 kts 276°
2026-05-05 18:40 53.55484 -2.86054 33953 ft 403 kts 276°
2026-05-05 18:40 53.55853 -2.90701 33504 ft 399 kts 276°
2026-05-05 18:40 53.56217 -2.95315 33100 ft 396 kts 276°
2026-05-05 18:40 53.56576 -2.99880 32723 ft 392 kts 276°
2026-05-05 18:41 53.56930 -3.04404 32327 ft 388 kts 276°
2026-05-05 18:41 53.57279 -3.08895 31952 ft 385 kts 276°
2026-05-05 18:41 53.57624 -3.13345 31588 ft 381 kts 276°
2026-05-05 18:41 53.57963 -3.17750 31224 ft 378 kts 276°
2026-05-05 18:42 53.58294 -3.22067 30869 ft 375 kts 276°
2026-05-05 18:42 53.58625 -3.26405 30510 ft 372 kts 276°
2026-05-05 18:42 53.58952 -3.30709 30159 ft 369 kts 276°
2026-05-05 18:42 53.59275 -3.34986 29756 ft 367 kts 276°
2026-05-05 18:43 53.59593 -3.39219 29371 ft 362 kts 276°
2026-05-05 18:43 53.59907 -3.43411 28995 ft 358 kts 276°
2026-05-05 18:43 53.60215 -3.47551 28635 ft 354 kts 276°
2026-05-05 18:43 53.60519 -3.51652 28260 ft 351 kts 276°
2026-05-05 18:44 53.60723 -3.54401 28016 ft 349 kts 276°
2026-05-05 18:44 53.61020 -3.58434 27644 ft 346 kts 276°
2026-05-05 18:44 53.61312 -3.62429 27288 ft 343 kts 276°
2026-05-05 18:44 53.61678 -3.66330 26937 ft 340 kts 282°
2026-05-05 18:45 53.62424 -3.70103 26591 ft 339 kts 290°
2026-05-05 18:45 53.63313 -3.73755 26245 ft 336 kts 290°
2026-05-05 18:45 53.64204 -3.77385 25896 ft 333 kts 290°
2026-05-05 18:45 53.65081 -3.80988 25553 ft 331 kts 290°
2026-05-05 18:46 53.65945 -3.84572 25210 ft 329 kts 290°
2026-05-05 18:46 53.66799 -3.88147 24870 ft 327 kts 290°
2026-05-05 18:46 53.67641 -3.91690 24545 ft 325 kts 290°
2026-05-05 18:46 53.68479 -3.95222 24209 ft 323 kts 290°
2026-05-05 18:47 53.69327 -3.98730 23884 ft 321 kts 291°
2026-05-05 18:47 53.70177 -4.02223 23543 ft 320 kts 291°
2026-05-05 18:47 53.71007 -4.05640 23155 ft 318 kts 290°
2026-05-05 18:47 53.71657 -4.09190 22790 ft 315 kts 281°
2026-05-05 18:48 53.71915 -4.12826 22480 ft 311 kts 274°
2026-05-05 18:48 53.72043 -4.16463 22135 ft 309 kts 273°
2026-05-05 18:48 53.72158 -4.20071 21805 ft 306 kts 273°
2026-05-05 18:48 53.72275 -4.23650 21479 ft 304 kts 274°
2026-05-05 18:49 53.72396 -4.27204 21150 ft 302 kts 274°
2026-05-05 18:49 53.72518 -4.30724 20842 ft 300 kts 274°
2026-05-05 18:49 53.72643 -4.34225 20532 ft 298 kts 274°
2026-05-05 18:49 53.72766 -4.37700 20220 ft 297 kts 274°
2026-05-05 18:50 53.72888 -4.41187 19911 ft 298 kts 274°
2026-05-05 18:50 53.73009 -4.44645 19606 ft 301 kts 274°
2026-05-05 18:50 53.73135 -4.48266 19293 ft 309 kts 274°
2026-05-05 18:50 53.73259 -4.51862 18966 ft 312 kts 274°
2026-05-05 18:51 53.73384 -4.55507 18633 ft 310 kts 274°
2026-05-05 18:51 53.73507 -4.59130 18301 ft 308 kts 274°
2026-05-05 18:51 53.73629 -4.62744 17928 ft 307 kts 274°
2026-05-05 18:51 53.73749 -4.66324 17581 ft 305 kts 274°
2026-05-05 18:52 53.73867 -4.69885 17253 ft 302 kts 274°
2026-05-05 18:52 53.73984 -4.73404 16925 ft 299 kts 274°
2026-05-05 18:52 53.74098 -4.76912 16596 ft 297 kts 274°
2026-05-05 18:52 53.74210 -4.80389 16294 ft 295 kts 274°
2026-05-05 18:53 53.74320 -4.83829 15983 ft 293 kts 274°
2026-05-05 18:53 53.74433 -4.87250 15678 ft 291 kts 274°
2026-05-05 18:53 53.74547 -4.90655 15371 ft 289 kts 274°
2026-05-05 18:53 53.74659 -4.94036 15067 ft 287 kts 274°
2026-05-05 18:54 53.74769 -4.97394 14768 ft 286 kts 274°
2026-05-05 18:54 53.74878 -5.00733 14470 ft 284 kts 274°
2026-05-05 18:54 53.74985 -5.04022 14175 ft 283 kts 274°
2026-05-05 18:54 53.75091 -5.07338 13866 ft 282 kts 274°
2026-05-05 18:55 53.75195 -5.10640 13538 ft 281 kts 274°
2026-05-05 18:55 53.75231 -5.13930 13212 ft 280 kts 265°
2026-05-05 18:55 53.74754 -5.17095 13005 ft 276 kts 253°
2026-05-05 18:55 53.74123 -5.20154 12696 ft 275 kts 252°
2026-05-05 18:56 53.73486 -5.23198 12407 ft 274 kts 252°
2026-05-05 18:56 53.72856 -5.26228 12108 ft 272 kts 253°
2026-05-05 18:56 53.72235 -5.29239 11816 ft 271 kts 253°
2026-05-05 18:56 53.71621 -5.32240 11526 ft 270 kts 253°
2026-05-05 18:57 53.71011 -5.35228 11232 ft 269 kts 253°
2026-05-05 18:57 53.70404 -5.38210 10941 ft 268 kts 253°
2026-05-05 18:57 53.69799 -5.41185 10648 ft 268 kts 253°
2026-05-05 18:57 53.69189 -5.44175 10307 ft 270 kts 253°
2026-05-05 18:58 53.68578 -5.47164 10015 ft 269 kts 253°
2026-05-05 18:58 53.68026 -5.50173 9680 ft 268 kts 263°
2026-05-05 18:58 53.68023 -5.53250 9391 ft 264 kts 276°
2026-05-05 18:58 53.68143 -5.56327 9087 ft 263 kts 275°
2026-05-05 18:59 53.68238 -5.59403 8802 ft 262 kts 274°
2026-05-05 18:59 53.68324 -5.62462 8548 ft 259 kts 274°
2026-05-05 18:59 53.68231 -5.65446 8414 ft 254 kts 254°
2026-05-05 18:59 53.67390 -5.68020 8331 ft 250 kts 234°
2026-05-05 19:00 53.66267 -5.70260 8231 ft 250 kts 231°
2026-05-05 19:00 53.65039 -5.72351 8108 ft 255 kts 217°
2026-05-05 19:00 53.63378 -5.73372 8019 ft 258 kts 184°
2026-05-05 19:00 53.61637 -5.72815 8002 ft 256 kts 152°
2026-05-05 19:01 53.60292 -5.70928 8006 ft 252 kts 129°
2026-05-05 19:01 53.59221 -5.68574 8008 ft 255 kts 125°
2026-05-05 19:01 53.58172 -5.66131 8006 ft 257 kts 125°
2026-05-05 19:01 53.57099 -5.63729 7993 ft 257 kts 134°
2026-05-05 19:02 53.55668 -5.62036 8008 ft 254 kts 151°
2026-05-05 19:02 53.54135 -5.60552 7997 ft 254 kts 149°
2026-05-05 19:02 53.52616 -5.59027 8000 ft 254 kts 149°
2026-05-05 19:02 53.51102 -5.57490 8002 ft 254 kts 149°
2026-05-05 19:03 53.49587 -5.55950 8003 ft 254 kts 150°
2026-05-05 19:03 53.47932 -5.54952 7998 ft 253 kts 173°
2026-05-05 19:03 53.46189 -5.54552 8007 ft 254 kts 173°
2026-05-05 19:03 53.44439 -5.54105 7997 ft 255 kts 172°
2026-05-05 19:04 53.42681 -5.53633 7998 ft 256 kts 172°
2026-05-05 19:04 53.40919 -5.53154 8004 ft 257 kts 172°
2026-05-05 19:04 53.39145 -5.52908 7986 ft 256 kts 189°
2026-05-05 19:04 53.37424 -5.53561 8001 ft 253 kts 196°
2026-05-05 19:05 53.35706 -5.54256 8003 ft 254 kts 195°
2026-05-05 19:05 53.33980 -5.54922 7999 ft 254 kts 195°
2026-05-05 19:05 53.32255 -5.55576 8005 ft 254 kts 194°
2026-05-05 19:05 53.30531 -5.56258 7997 ft 253 kts 200°
2026-05-05 19:06 53.29011 -5.57652 8011 ft 248 kts 218°
2026-05-05 19:06 53.27611 -5.59292 8000 ft 249 kts 217°
2026-05-05 19:06 53.26182 -5.60933 7996 ft 249 kts 219°
2026-05-05 19:06 53.25065 -5.63058 7987 ft 242 kts 250°
2026-05-05 19:07 53.24795 -5.65761 8010 ft 237 kts 279°
2026-05-05 19:07 53.25287 -5.68335 7955 ft 233 kts 302°
2026-05-05 19:07 53.26282 -5.70420 7700 ft 229 kts 314°
2026-05-05 19:07 53.27402 -5.72325 7257 ft 230 kts 315°
2026-05-05 19:08 53.28533 -5.74218 6885 ft 229 kts 315°
2026-05-05 19:08 53.29648 -5.76107 6530 ft 227 kts 315°
2026-05-05 19:08 53.30747 -5.77991 6149 ft 226 kts 315°
2026-05-05 19:08 53.31828 -5.79853 5945 ft 221 kts 315°
2026-05-05 19:09 53.32904 -5.81710 5666 ft 224 kts 315°
2026-05-05 19:09 53.33991 -5.83589 5385 ft 224 kts 315°
2026-05-05 19:09 53.35077 -5.85469 5113 ft 224 kts 315°
2026-05-05 19:09 53.36157 -5.87342 4845 ft 224 kts 315°
2026-05-05 19:10 53.37236 -5.89216 4573 ft 223 kts 315°
2026-05-05 19:10 53.38311 -5.91085 4306 ft 222 kts 315°
2026-05-05 19:10 53.39381 -5.92946 4049 ft 221 kts 316°
2026-05-05 19:10 53.40267 -5.94998 3785 ft 224 kts 291°
2026-05-05 19:11 53.40535 -5.97614 3521 ft 226 kts 281°
2026-05-05 19:11 53.40713 -6.00214 3219 ft 228 kts 280°
2026-05-05 19:11 53.40863 -6.02873 2912 ft 230 kts 278°
2026-05-05 19:11 53.40996 -6.05488 2594 ft 220 kts 278°
2026-05-05 19:12 53.41123 -6.07971 2288 ft 206 kts 278°
2026-05-05 19:12 53.41244 -6.10283 2011 ft 193 kts 278°
2026-05-05 19:12 53.41358 -6.12436 1763 ft 178 kts 278°
2026-05-05 19:12 53.41464 -6.14447 1500 ft 168 kts 278°
2026-05-05 19:13 53.41561 -6.16294 1302 ft 153 kts 278°
2026-05-05 19:13 53.41656 -6.18060 1085 ft 152 kts 278°
2026-05-05 19:13 53.41750 -6.19844 866 ft 155 kts 275°
2026-05-05 19:13 53.41841 -6.21646 661 ft 156 kts 275°
2026-05-05 19:14 53.41941 -6.23438 456 ft 157 kts 275°
2026-05-05 19:14 53.42039 -6.25253 252 ft 154 kts 275°
2026-05-05 19:14 53.42130 -6.26939 211 ft 126 kts 275°
2026-05-05 19:14 53.42189 -6.28039 210 ft 55 kts 275°
2026-05-05 19:15 53.42270 -6.28284 211 ft 21 kts 320°
2026-05-05 19:15 53.42332 -6.28317 210 ft 8 kts
2026-05-05 19:15 53.42376 -6.28265 217 ft 8 kts 69°
2026-05-05 19:15 53.42374 -6.28171 212 ft 8 kts 97°
2026-05-05 19:16 53.42367 -6.28079 211 ft 8 kts 97°
2026-05-05 19:16 53.42360 -6.27972 214 ft 10 kts 96°
2026-05-05 19:16 53.42352 -6.27834 212 ft 14 kts 96°
2026-05-05 19:16 53.42340 -6.27644 210 ft 19 kts 95°
2026-05-05 19:17 53.42327 -6.27392 210 ft 23 kts 95°
2026-05-05 19:17 53.42312 -6.27125 214 ft 23 kts 95°
2026-05-05 19:17 53.42298 -6.26865 210 ft 23 kts 94°
2026-05-05 19:17 53.42281 -6.26574 210 ft 25 kts 95°
2026-05-05 19:18 53.42267 -6.26294 210 ft 23 kts 95°
2026-05-05 19:18 53.42260 -6.26033 210 ft 22 kts 78°
2026-05-05 19:18 53.42348 -6.25825 214 ft 22 kts 45°
2026-05-05 19:18 53.42455 -6.25642 210 ft 23 kts 46°
2026-05-05 19:19 53.42565 -6.25449 217 ft 23 kts 46°
2026-05-05 19:19 53.42675 -6.25268 210 ft 22 kts 45°
2026-05-05 19:19 53.42763 -6.25119 214 ft 14 kts 47°
2026-05-05 19:19 53.42735 -6.24998 210 ft 13 kts 148°
2026-05-05 19:20 53.42665 -6.24908 213 ft 13 kts 111°
2026-05-05 19:20 53.42690 -6.24810 214 ft 7 kts 54°
2026-05-05 19:20 53.42702 -6.24743 210 ft 6 kts 117°
2026-05-05 19:20 53.42677 -6.24715 210 ft 2 kts 148°
2026-05-05 19:21 53.42667 -6.24705 213 ft 2 kts 148°
2026-05-05 19:21 53.42663 -6.24701 212 ft 0 kts 148°